Hourly Data Report for October 25, 2014

All times are specified in Local Standard Time (LST). Add 1 hour to adjust for Daylight Saving Time where and when it is observed.

KITCHENER/WATERLOO
ONTARIO

43°27'39.000" N
80°22'43.000" W
321.60 m
6144239
71368
YKF

Download Data

Hourly Data (October 2014)
Hourly Data Report for October 25, 2014
Temp Definition
°C
Dew Point Temp Definition
°C
Rel Hum Definition
%
Wind Dir Definition
10's deg

Wind Spd Definition
km/h
Visibility Definition
km
Stn Press Definition
kPa
Hmdx Definition


Wind Chill Definition


Weather Definition


TIME
00:00 Legend Double Dagger 10.0 5.6 74 23 8 16.1 97.46     LegendNANA
01:00 Legend Double Dagger 8.8 5.6 80 23 5 12.9 97.42     LegendNANA
02:00 Legend Double Dagger 7.6 5.1 84 LegendMM 4 11.3 97.40     LegendNANA
03:00 Legend Double Dagger 7.2 5.4 88 LegendMM 4 9.7 97.30     Fog
04:00 Legend Double Dagger 7.9 6.4 90 25 8 6.4 97.28     Fog
05:00 Legend Double Dagger 8.5 7.1 91 24 15 6.4 97.20     Fog
06:00 Legend Double Dagger 8.1 6.9 92 23 13 4.8 97.17     Fog
07:00 Legend Double Dagger 8.7 7.5 92 24 11 4.8 97.12     Fog
08:00 Legend Double Dagger 10.0 8.3 89 20 13 4.8 97.02     Fog
09:00 Legend Double Dagger 12.1 9.0 81 21 28 9.7 96.88     Haze
10:00 Legend Double Dagger 13.2 8.5 73 22 28 16.1 96.78     LegendNANA
11:00 Legend Double Dagger 13.2 8.9 75 25 26 16.1 96.75     LegendNANA
12:00 Legend Double Dagger 12.4 9.6 83 26 28 8.1 96.71     Haze
13:00 Legend Double Dagger 12.6 9.6 82 26 28 11.3 96.63     LegendNANA
14:00 Legend Double Dagger 15.0 9.5 69 27 28 16.1 96.57     LegendNANA
15:00 Legend Double Dagger 14.2 7.8 65 28 28 16.1 96.56     LegendNANA
16:00 Legend Double Dagger 15.0 6.4 56 27 34 16.1 96.59     LegendNANA
17:00 Legend Double Dagger 13.9 7.1 63 26 22 16.1 96.56     LegendNANA
18:00 Legend Double Dagger 12.0 7.1 72 24 13 16.1 96.54     LegendNANA
19:00 Legend Double Dagger 11.7 6.5 70 33 24 16.1 96.63     LegendNANA
20:00 Legend Double Dagger 9.5 4.3 70 31 15 16.1 96.71     LegendNANA
21:00 Legend Double Dagger 8.1 4.5 78 29 15 16.1 96.74     LegendNANA
22:00 Legend Double Dagger 7.5 4.5 81 29 15 16.1 96.74     LegendNANA
23:00 Legend Double Dagger 7.6 4.7 82 29 21 16.1 96.71     LegendNANA

Notes on Data Quality.

Legend

  • E = Estimated
  • M = Missing
  • NA = Not Available
  • ‡ = Partner data that is not subject to review by the National Climate Archives
Date modified: